Date String (YYYY-MM-DD hh:mm:ss) UTC,Instrument flags,absolute air pressure of the measurement (hPa),sample flow rate (lpm),inlet stack bypass flow (lpm),air temperature of the measurement (°C),ambient temperature measured by the external sensor (°C),aerosol sample conditioner tube jacket temperature (°C),OPC LED temperature (°C),internal box temperature (°C),relative humidity of the measurement (%),span deviation,mass concentration of particles derived from Lorenz-Mie calculation of OPC scattering (μg/m³),mass concentration of particles derived from Lorenz-Mie calculation of OPC scattering (μg/m³),mass concentration of particles derived from Lorenz-Mie calculation of OPC scattering (μg/m³)
DateTimeUTC,F1_M11,P_M11,Q1_M11,Q2_M11,T1_M11,T2_M11,T3_M11,T4_M11,T5_M11,U1_M11,ZSPAN_M11,X0_M11,X2_M11,X1_M11
2023-07-24 01:00:00,SystemResetWarning,0834.9,5.00,000.00,028.7,024.9,000.0,036.8,030.2,23.7,0000.0,0008.48,0004.47,0004.12
2023-07-24 01:01:00,SystemResetWarning,0835.1,5.01,000.00,028.6,024.6,000.0,036.7,030.0,23.8,0000.0,0008.41,0004.44,0004.10
2023-07-24 01:02:00,SystemResetWarning,0835.4,5.01,000.00,028.5,025.0,000.0,036.8,029.9,23.4,0000.0,0008.44,0004.39,0004.07
2023-07-24 01:03:00,SystemResetWarning,0835.3,5.00,000.00,028.5,025.4,000.0,036.8,029.9,23.5,0000.0,0008.37,0004.38,0004.06
2023-07-24 01:04:00,SystemResetWarning,0835.5,5.00,000.00,028.5,025.9,000.0,036.8,030.0,23.5,0000.0,0008.35,0004.36,0004.04
2023-07-24 01:05:00,SystemResetWarning,0835.3,5.00,000.00,028.5,026.3,000.0,036.9,030.2,23.6,0000.0,0007.64,0004.35,0004.02
2023-07-24 01:06:00,SystemResetWarning,0835.3,5.00,000.00,028.6,026.8,000.0,036.9,030.2,23.4,0000.0,0007.61,0004.37,0004.02
2023-07-24 01:07:00,SystemResetWarning,0835.4,5.00,000.00,028.6,027.1,000.0,036.9,030.3,23.3,0000.0,0007.65,0004.36,0004.01
2023-07-24 01:08:00,SystemResetWarning,0835.2,5.00,000.00,028.7,027.4,000.0,036.9,030.4,23.7,0000.0,0007.74,0004.34,0004.01
2023-07-24 01:09:00,SystemResetWarning,0834.8,5.00,000.00,028.7,027.6,000.0,037.0,030.5,23.5,0000.0,0007.77,0004.34,0004.00
2023-07-24 01:10:00,SystemResetWarning,0834.8,4.99,000.00,028.8,027.0,000.0,036.9,030.5,23.6,0000.0,0007.93,0004.34,0003.99
2023-07-24 01:11:00,SystemResetWarning,0834.7,5.00,000.00,028.7,025.2,000.0,036.8,030.2,23.5,0000.0,0007.92,0004.33,0003.97
2023-07-24 01:12:00,SystemResetWarning,0835.0,5.01,000.00,028.7,024.7,000.0,036.8,030.1,23.5,0000.0,0007.94,0004.32,0003.96
2023-07-24 01:13:00,SystemResetWarning,0834.7,5.01,000.00,028.6,025.0,000.0,036.8,030.0,23.9,0000.0,0007.88,0004.33,0003.94
2023-07-24 01:14:00,SystemResetWarning,0834.8,4.99,000.00,028.6,025.4,000.0,036.8,030.0,24.3,0000.0,0007.94,0004.32,0003.92
2023-07-24 01:15:00,SystemResetWarning,0834.6,5.00,000.00,028.6,025.9,000.0,036.9,030.1,24.2,0000.0,0007.98,0004.34,0003.91
2023-07-24 01:16:00,SystemResetWarning,0834.8,5.01,000.00,028.6,026.4,000.0,036.9,030.2,24.1,0000.0,0008.06,0004.34,0003.90
2023-07-24 01:17:00,SystemResetWarning,0834.9,5.00,000.00,028.6,026.7,000.0,036.9,030.3,24.5,0000.0,0008.27,0004.34,0003.88
2023-07-24 01:18:00,SystemResetWarning,0835.1,4.99,000.00,028.7,027.1,000.0,037.0,030.3,24.0,0000.0,0008.47,0004.32,0003.85
2023-07-24 01:19:00,SystemResetWarning,0834.9,4.99,000.00,028.7,027.4,000.0,037.0,030.5,23.6,0000.0,0008.42,0004.32,0003.84
2023-07-24 01:20:00,SystemResetWarning,0835.0,5.00,000.00,028.8,027.6,000.0,037.0,030.6,23.2,0000.0,0008.25,0004.27,0003.82
2023-07-24 01:21:00,SystemResetWarning,0835.0,4.99,000.00,028.8,027.3,000.0,037.0,030.6,22.8,0000.0,0008.08,0004.24,0003.81
2023-07-24 01:22:00,SystemResetWarning,0834.7,5.01,000.00,028.8,025.8,000.0,036.9,030.4,22.8,0000.0,0008.10,0004.24,0003.80
2023-07-24 01:23:00,SystemResetWarning,0834.5,5.01,000.00,028.7,025.7,000.0,036.9,030.3,22.9,0000.0,0008.11,0004.25,0003.79
2023-07-24 01:24:00,SystemResetWarning,0834.5,5.00,000.00,028.7,025.9,000.0,036.9,030.2,23.2,0000.0,0008.16,0004.25,0003.78
2023-07-24 01:25:00,SystemResetWarning,0834.5,5.00,000.00,028.7,026.3,000.0,037.0,030.3,23.3,0000.0,0008.12,0004.25,0003.78
2023-07-24 01:26:00,SystemResetWarning,0834.5,5.00,000.00,028.7,026.7,000.0,037.0,030.3,23.3,0000.0,0008.04,0004.21,0003.77
2023-07-24 01:27:00,SystemResetWarning,0834.5,5.01,000.00,028.8,027.0,000.0,037.0,030.4,23.1,0000.0,0007.90,0004.17,0003.76
2023-07-24 01:28:00,SystemResetWarning,0834.5,5.00,000.00,028.8,027.3,000.0,037.1,030.5,22.8,0000.0,0007.75,0004.13,0003.74
2023-07-24 01:29:00,SystemResetWarning,0834.5,4.99,000.00,028.9,027.1,000.0,037.0,030.5,23.0,0000.0,0007.27,0004.12,0003.73
2023-07-24 01:30:00,SystemResetWarning,0834.4,5.00,000.00,028.8,025.4,000.0,036.9,030.2,22.6,0000.0,0007.14,0004.09,0003.72
2023-07-24 01:31:00,SystemResetWarning,0834.4,5.01,000.00,028.7,024.5,000.0,036.9,030.1,22.6,0000.0,0006.84,0004.08,0003.71
2023-07-24 01:32:00,SystemResetWarning,0834.4,5.01,000.00,028.6,024.8,000.0,036.9,030.0,22.9,0000.0,0006.94,0004.08,0003.71
2023-07-24 01:33:00,SystemResetWarning,0834.4,5.00,000.00,028.6,025.2,000.0,036.9,030.0,22.9,0000.0,0007.09,0004.08,0003.70
2023-07-24 01:34:00,SystemResetWarning,0834.4,5.00,000.00,028.6,025.7,000.0,036.9,030.1,22.9,0000.0,0007.14,0004.06,0003.69
2023-07-24 01:35:00,SystemResetWarning,0834.5,5.00,000.00,028.6,026.2,000.0,036.9,030.1,23.2,0000.0,0007.11,0004.04,0003.68
2023-07-24 01:36:00,SystemResetWarning,0834.4,4.99,000.00,028.6,026.6,000.0,037.0,030.2,23.4,0000.0,0006.99,0004.01,0003.66
2023-07-24 01:37:00,SystemResetWarning,0834.5,4.99,000.00,028.7,027.0,000.0,037.0,030.3,23.3,0000.0,0007.83,0003.99,0003.65
2023-07-24 01:38:00,SystemResetWarning,0834.5,5.00,000.00,028.7,027.3,000.0,037.0,030.4,23.3,0000.0,0008.31,0003.99,0003.65
2023-07-24 01:39:00,SystemResetWarning,0834.5,5.00,000.00,028.8,027.5,000.0,037.1,030.5,23.3,0000.0,0008.35,0003.99,0003.64
2023-07-24 01:40:00,SystemResetWarning,0834.5,5.00,000.00,028.8,027.5,000.0,037.0,030.6,23.4,0000.0,0008.58,0003.98,0003.65
2023-07-24 01:41:00,SystemResetWarning,0834.5,4.99,000.00,028.8,025.8,000.0,036.9,030.4,23.5,0000.0,0008.65,0004.01,0003.65
2023-07-24 01:42:00,SystemResetWarning,0834.5,5.00,000.00,028.7,024.7,000.0,036.9,030.2,23.6,0000.0,0008.72,0004.03,0003.65
2023-07-24 01:43:00,SystemResetWarning,0834.5,5.01,000.00,028.7,024.8,000.0,036.8,030.1,23.8,0000.0,0008.36,0004.01,0003.64
2023-07-24 01:44:00,SystemResetWarning,0834.5,5.00,000.00,028.6,025.2,000.0,036.9,030.0,23.8,0000.0,0008.23,0003.99,0003.63
2023-07-24 01:45:00,SystemResetWarning,0834.6,4.99,000.00,028.6,025.6,000.0,036.9,030.0,23.9,0000.0,0008.10,0003.97,0003.63
2023-07-24 01:46:00,SystemResetWarning,0834.5,5.00,000.00,028.6,026.1,000.0,036.9,030.2,24.0,0000.0,0008.04,0003.94,0003.64
2023-07-24 01:47:00,SystemResetWarning,0834.5,5.01,000.00,028.6,026.5,000.0,037.0,030.3,24.0,0000.0,0008.05,0003.96,0003.64
2023-07-24 01:48:00,SystemResetWarning,0834.8,5.01,000.00,028.7,026.9,000.0,037.0,030.4,23.4,0000.0,0007.17,0003.95,0003.64
2023-07-24 01:49:00,SystemResetWarning,0835.1,4.99,000.00,028.7,027.2,000.0,037.0,030.4,22.9,0000.0,0006.40,0003.94,0003.63
2023-07-24 01:50:00,SystemResetWarning,0835.0,4.99,000.00,028.8,027.5,000.0,037.0,030.5,22.4,0000.0,0007.49,0003.95,0003.64
2023-07-24 01:51:00,SystemResetWarning,0835.1,5.01,000.00,028.8,027.6,000.0,037.1,030.6,22.1,0000.0,0007.29,0003.95,0003.63
2023-07-24 01:52:00,SystemResetWarning,0834.7,4.98,000.00,028.8,026.2,000.0,037.0,030.4,22.4,0000.0,0007.24,0003.94,0003.62
2023-07-24 01:53:00,SystemResetWarning,0834.5,5.01,000.00,028.7,024.7,000.0,036.9,030.2,22.2,0000.0,0007.24,0003.94,0003.62
2023-07-24 01:54:00,SystemResetWarning,0834.5,5.01,000.00,028.7,024.6,000.0,036.8,030.0,21.6,0000.0,0007.31,0003.95,0003.63
2023-07-24 01:55:00,SystemResetWarning,0834.5,5.01,000.00,028.6,025.0,000.0,036.9,029.9,21.9,0000.0,0007.35,0003.99,0003.64
2023-07-24 01:56:00,SystemResetWarning,0835.0,4.98,000.00,028.6,025.5,000.0,036.9,030.0,22.0,0000.0,0007.52,0004.02,0003.65
2023-07-24 01:57:00,SystemResetWarning,0835.0,5.00,000.00,028.6,026.0,000.0,036.9,030.1,21.6,0000.0,0007.54,0004.06,0003.69
2023-07-24 01:58:00,SystemResetWarning,0834.9,5.01,000.00,028.6,026.4,000.0,036.9,030.2,21.2,0000.0,0008.43,0004.14,0003.76
2023-07-24 01:59:00,SystemResetWarning,0834.8,5.00,000.00,028.6,026.8,000.0,037.0,030.3,21.2,0000.0,0008.58,0004.19,0003.81
